sat.trackr.live / text

‹ back to catalog

STARLINK-34724

NORAD 66442 · 2025-259W

PAYLOAD ACTIVE UNKNOWN

§ Identity

Operator
Country
US
Launch date
2025-11-11
Launch site
AFETR
Launch vehicle
Mass (kg)
RCS (m²)

Purposes: comms

External: N2YO · Heavens-Above · Gunter

§ Orbital elements

Epoch: 2026-09-20T23:34:23.075328Z

Period
94.27 min
Inclination
43.0018°
Eccentricity
0.0001668
Mean motion
15.27572646 rev/d
Perigee alt
481.9 km
Apogee alt
484.2 km
Semi-major
6,861.2 km
B*
5.0371e-4
RAAN
251.8776°
Arg perigee
269.3265°
Mean anomaly
90.7396°
Rev number
4,935

§ Raw data

STARLINK-347241 66442U 25259W   26263.98221152  .00013621  00000+0  50371-3 0  99952 66442  43.0018 251.8776 0001668 269.3265  90.7396 15.27572646 49350

JSON: /api/v1/satellites/66442 · /tle

For live sub-satellite position, see the globe view (requires WebGL).

§ Visibility from observer

Set your observer location to see the next 7 days of passes ≥ 10°. The values pass through the URL so the page stays shareable.

No JS? Fill the form by hand. The geolocation button needs JavaScript.